Location: *
(49.0044°N, 9.5056°E)
Time: 23:11:28
(UTC+00:00)

SPOT 3 Rocket - Pass Details

Date: 22 September 2019
Orbit: 779 x 794 km, 98.8° (Epoch: 17 October)

Event Time Altitude Azimuth Distance (km) Brightness Sun altitude
Exits shadow 18:09:17 - 135° (SE) 2,770 5.9 -8.7°
Reaches altitude 10° 18:10:28 10° 131° (SE) 2,331 5.5 -8.9°
Maximum altitude 18:15:10 38° 65° (ENE) 1,188 4.1 -9.7°
Drops below altitude 10° 18:19:54 10° 359° (N) 2,348 6.2 -10.4°
Sets 18:22:21 0° 351° (N) 3,282 7.1 -10.8°
